Regional Weather Roundup
Issued by NWS

Home | Current Version | Previous Version | Graphics & Text | Print | Product List | Glossary On
Versions: 1 2 3 4 5 6 7 8 9 10 11 12 13 14 15 16 17 18 19 20 21 22 23 24 25 26 27 28 29 30 31 32 33 34 35 36 37 38 39 40 41 42 43 44 45 46 47 48 49 50
000
ASUS45 KBOU 250007
RWRCO

WEATHER ROUNDUP FOR COLORADO
NATIONAL WEATHER SERVICE DENVER/BOULDER CO
600 PM MDT SUN MAY 24 2015

NOTE: "FAIR" INDICATES FEW OR NO CLOUDS BELOW 12000 FEET WITH NO
SIGNIFICANT WEATHER AND/OR OBSTRUCTIONS TO VISIBILITY.

COZ001>005-013-030-031-250100-
...NORTHWEST COLORADO...

CITY           SKY/WX    TMP DP  RH WIND       PRES   REMARKS
CRAIG          LGT RAIN  47  41  80 W8        29.94S
HAYDEN         CLOUDY    43  37  81 W8        29.94F
MEEKER         LGT RAIN  45  40  82 SW5       29.95S
MOUNT WERNER   NOT AVBL
STEAMBOAT SPGS CLOUDY    40  38  94 S5        29.95S
WALDEN         CLOUDY    45  30  57 NW7       29.93S
$$

COZ006>008-011-250100-
...WEST CENTRAL VALLEYS...

CITY           SKY/WX    TMP DP  RH WIND       PRES   REMARKS
GRAND JUNCTION CLOUDY    59  39  47 NW8       29.87F
MONTROSE       CLOUDY    56  36  47 CALM      29.92S
EAGLE          PTSUNNY   50  37  62 SW17      29.94R
RIFLE          LGT RAIN  49  43  80 N3        29.94S
DELTA          LGT RAIN  59  42  54 MISG      29.90S
NUCLA          LGT RAIN  57  39  51 S9        29.95S
$$

COZ017>023-064>068-250100-
...SOUTHWEST COLORADO...

CITY           SKY/WX    TMP DP  RH WIND       PRES   REMARKS
DURANGO        PTSUNNY   57  35  43 W20G26    29.93S
CORTEZ         PTSUNNY   59  39  47 W10       29.93F
PAGOSA SPRINGS CLOUDY    47  36  66 CALM      30.00R
TELLURIDE      PTSUNNY   44  34  69 S6        30.04F
WOLF CREEK PAS NOT AVBL
$$

COZ009-010-012-014-032>034-037-058>063-250100-
...CENTRAL COLORADO...

CITY           SKY/WX    TMP DP  RH WIND       PRES   REMARKS
ASPEN          LGT RAIN  44  37  76 N5        29.96R
BUENA VISTA    PTSUNNY   55  24  30 W20G29    29.87R
COPPER MTN     SNOW      34  30  86 W18       30.05S VSB<1/4 WCI  23
BERTHOUD PASS  SNOW      25  18  74 W20G28    30.06S VSB<1/4 WCI  11
COTTONWOOD PAS PTSUNNY   48  21  34 W20G30    29.96R
GUNNISON       PTSUNNY   46  30  53 SW16G24   29.96S
KREMMLING      CLOUDY    43  34  70 N12G18    29.94S
LEADVILLE      PTSUNNY   40  26  57 NW14G20   29.97S
MONARCH PASS   PTSUNNY   32  25  74 W30G45    30.15S WCI  18
SALIDA         PTSUNNY   55  30  38 SW16G24   29.93S
SUNLIGHT       SNOW      34  32  93 CALM      30.08S VSB 1/4
WILKERSON PASS CLOUDY    36  30  80 CALM      30.03S
$$

COZ069>075-250100-
...SAN LUIS VALLEY/SANGRE DE CRISTO MOUNTAINS...

CITY           SKY/WX    TMP DP  RH WIND       PRES   REMARKS
ALAMOSA        LGT RAIN  48  36  63 NE7       29.95R
LA VETA PASS   CLOUDY   N/A N/A N/A MISG      29.98S THUNDER
SAGUACHE       CLOUDY    50  34  53 S8        29.93F
$$

COZ035-036-038>040-250100-
...NORTHERN COLORADO FRONT RANGE...

CITY           SKY/WX    TMP DP  RH WIND       PRES   REMARKS
DENVER INTL AP PTSUNNY   57  40  52 W7        29.82S
DMNS CITY PARK   N/A     58  40  51 NW3       29.83S
AURORA         PTSUNNY   58  38  47 NW1       29.83F
FRONT RANGE AP PTSUNNY   59  45  58 W8        29.83S
ERIE MUNI ARPT PTSUNNY   59  43  56 NW3       29.82F
BOULDER MUN AP PTSUNNY   54  41  62 CALM      29.82F
CENTENNIAL     CLOUDY    55  40  56 S6        29.84S
BROOMFIELD     PTSUNNY   59  41  51 W5        29.84F
FORT COLLINS   MOSUNNY   59  43  55 SW3       29.83S
LONGMONT       MOSUNNY   58  44  61 CALM      29.83F
$$

COZ041-046-047-076>085-087-088-250100-
...PIKES PEAK/PALMER DIVIDE AND SOUTHERN FOOTHILLS...

CITY           SKY/WX    TMP DP  RH WIND       PRES   REMARKS
COLO. SPRINGS  PTSUNNY   55  42  61 W9        29.84R
A. F. ACADEMY  PTSUNNY   52  38  58 N3        29.84F
ELLICOTT       NOT AVBL
FALCON         PTSUNNY   55  40  56 NE5       29.87R
FORT CARSON    PTSUNNY   57  41  55 VRB2      29.81F
LIMON          CLOUDY    58  36  43 SW8       29.82R
MONUMENT HILL  NOT AVBL
TRINIDAD       CLOUDY    56  42  59 NW9       29.82F
$$

COZ042>045-048>051-090-091-250100-
...NORTHEAST COLORADO...

CITY           SKY/WX    TMP DP  RH WIND       PRES   REMARKS
GREELEY ARPT   MOSUNNY   59  39  47 E3        29.82R
AKRON          CLOUDY    49  46  90 N12       29.80F
BURLINGTON     TSTM      46  43  89 N8        29.83R FOG
WRAY           TSTM      49  49 100 NW12      29.80R
STERLING       CLOUDY    52  50  93 N6        29.79F
HOLYOKE        NOT AVBL
FORT MORGAN    CLOUDY    57  46  64 N13       29.81S
$$

COZ086-089-092>099-250100-
...SOUTHEAST COLORADO...

CITY           SKY/WX    TMP DP  RH WIND       PRES   REMARKS
PUEBLO         PTSUNNY   59  43  55 SE7       29.78F
LA JUNTA       HVY RAIN  56  47  71 W15G24    29.80R
LAMAR          CLOUDY    58  56  93 S13       29.75F
SPRINGFIELD      N/A     58  47  66 NW16      29.75S
$$



USA.gov is the U.S. government's official web portal to all federal, state and local government web resources and services.